This demonstration page uses our WeatherBlox Daily Observations layout. Learn more.

Left ArrowRight Arrow

Hourly Observations for December 26, 2015

Temp ( °F °C ) Dew Point ( °F °C ) Humidity (%) Winds ( mph kmh ) Pressure ( in mb ) Visibility ( mi km ) Precip ( " mm )
12:34 am 00:34 Cloudy with Light Rain 36 2 32 0 87 87 ENE 10 17 30.03 1017 10 16 0.00 0.00
12:58 am 00:58 Cloudy with Light Rain 35 1.5 33 0.6 94 94 ENE 10 17 30.04 1017 5 8 0.03 0.76
1:58 am 01:58 Cloudy with Light Rain 35 1.6 33 0.8 94 94 ENE 13 20 30.01 1016 9 14 0.02 0.51
2:58 am 02:58 Cloudy 35 1.6 33 0.7 94 94 NE 10 17 30.01 1016 10 16 0.05 1.27
3:58 am 03:58 Cloudy 35 1.5 33 0.8 95 95 NE 10 17 30.01 1016 10 16 0.05 1.27
4:58 am 04:58 Cloudy 35 1.5 33 0.7 94 94 NE 13 20 30.00 1016 10 16 0.04 1.02
5:32 am 05:32 Cloudy with Mist and Fog 34 1 34 1 100 100 NE 10 17 30.00 1016 4 6 0.00 0.00
5:58 am 05:58 Cloudy 34 1.3 34 1.2 99 99 NNE 13 20 30.00 1016 7 11 0.03 0.76
6:29 am 06:29 Cloudy with Light Rain 34 1 34 1 100 100 NNE 10 17 30.00 1016 4 6 0.00 0.00
6:51 am 06:51 Cloudy with Light Rain 34 1 34 1 100 100 NNE 12 19 30.00 1016 3 4 0.00 0.00
6:55 am 06:55 Cloudy with Light Rain 34 1 34 1 100 100 NNE 12 19 30.00 1016 3 5 0.00 0.00
6:58 am 06:58 Cloudy with Light Rain 34 1.2 34 1.1 99 99 NNE 12 19 30.02 1017 3 5 0.03 0.76
7:21 am 07:21 Cloudy with Mist and Fog 34 1 34 1 100 100 NNE 9 15 30.06 1018 4 6 0.00 0.00
7:25 am 07:25 Cloudy with Light Rain 34 1 34 1 100 100 NNE 10 17 30.06 1018 5 8 0.00 0.00
7:45 am 07:45 Cloudy with Mist and Fog 34 1 34 1 100 100 NNE 10 17 30.06 1018 5 8 0.00 0.00
7:58 am 07:58 Cloudy with Mist and Fog 34 1.1 34 1 99 99 NNE 12 19 30.04 1017 4 6 0.03 0.76
7:59 am 07:59 Cloudy with Light Rain 34 1 34 1 100 100 NNE 13 20 30.06 1018 3 5 0.00 0.00
8:21 am 08:21 Cloudy with Light Rain 34 1 34 1 100 100 NNE 12 19 30.06 1018 2 3 0.00 0.00
8:51 am 08:51 Cloudy with Mist and Fog 34 1 34 1 100 100 NNE 10 17 30.06 1018 3 5 0.00 0.00
8:58 am 08:58 Cloudy with Mist and Fog 34 1.1 34 1 99 99 NNE 9 15 30.05 1018 3 5 0.01 0.25
9:02 am 09:02 Cloudy with Mist and Fog 34 1 34 1 100 100 NE 9 15 30.06 1018 3 5 0.00 0.00
9:05 am 09:05 Cloudy with Light Rain 34 1 34 1 100 100 NE 9 15 30.06 1018 4 6 0.00 0.00
9:09 am 09:09 Cloudy with Mist and Fog 34 1 34 1 100 100 NE 10 17 30.09 1019 4 6 0.00 0.00
9:36 am 09:36 Cloudy 34 1 34 1 100 100 NNE 9 15 30.09 1019 7 11 0.00 0.00
9:58 am 09:58 Cloudy 34 1.3 34 1.2 99 99 NNE 7 11 30.08 1019 9 14 0.03 0.76
10:58 am 10:58 Cloudy 35 1.5 34 1.3 99 99 N 6 9 30.11 1020 10 16 0.01 0.25
11:03 am 11:03 Cloudy 36 2 34 1 93 93 VRB 7 11 30.12 1020 9 14 0.00 0.00
11:58 am 11:58 Cloudy with Mist and Fog 35 1.4 34 1.3 99 99 NNW 8 13 30.13 1020 4 6 0.01 0.25
12:16 pm 12:16 Cloudy with Mist and Fog 34 1 34 1 100 100 N 9 15 30.15 1021 5 8 0.00 0.00
12:46 pm 12:46 Cloudy with Mist and Fog 34 1 34 1 100 100 N 13 20 30.15 1021 6 10 0.00 0.00
12:58 pm 12:58 Cloudy 34 1.3 34 1.2 99 99 N 12 19 30.12 1020 7 11 0.00 0.00
1:32 pm 13:32 Cloudy with Mist and Fog 34 1 32 0 93 93 N 9 15 30.15 1021 6 10 0.00 0.00
1:49 pm 13:49 Cloudy with Mist and Fog 34 1 34 1 100 100 NNW 13 20 30.15 1021 5 8 0.00 0.00
1:55 pm 13:55 Cloudy with Mist and Fog 34 1 32 0 93 93 N 16 26 30.12 1020 5 8 0.00 0.00
1:58 pm 13:58 Cloudy with Mist and Fog 34 1.1 33 0.8 98 98 N 13 20 30.11 1020 5 8 0.00 0.00
2:04 pm 14:04 Cloudy with Mist and Fog 34 1 32 0 93 93 N 12 19 30.12 1020 5 8 0.00 0.00
2:58 pm 14:58 Cloudy with Mist and Fog 34 1 33 0.6 97 97 N 14 22 30.14 1021 5 8 0.00 0.00
3:39 pm 15:39 Cloudy 32 0 32 0 100 100 N 10 17 30.18 1022 10 16 0.00 0.00
3:58 pm 15:58 Cloudy 33 0.8 32 0.2 96 96 NNW 14 22 30.16 1021 10 16 0.00 0.00
4:25 pm 16:25 Cloudy 32 0 32 0 100 100 N 13 20 30.18 1022 10 16 0.00 0.00
4:58 pm 16:58 Cloudy 33 0.7 32 0.2 97 97 NNW 13 20 30.20 1023 10 16 0.00 0.00
5:21 pm 17:21 Cloudy 32 0 32 0 100 100 NNW 13 20 30.24 1024 10 16 0.00 0.00
5:51 pm 17:51 Cloudy 32 0 32 0 100 100 N 16 26 30.24 1024 10 16 0.00 0.00
5:58 pm 17:58 Cloudy 33 0.7 31 -0.6 91 91 N 16 26 30.24 1024 10 16 0.00 0.00
6:30 pm 18:30 Cloudy 32 0 32 0 100 100 N 14 22 30.30 1026 10 16 0.00 0.00
6:37 pm 18:37 Cloudy 32 0 30 -1 93 93 N 17 28 30.30 1026 10 16 0.00 0.00
6:51 pm 18:51 Cloudy 32 0 30 -1 93 93 NNW 13 20 30.30 1026 10 16 0.00 0.00
6:58 pm 18:58 Cloudy 33 0.5 30 -1.2 89 89 NNW 15 24 30.29 1026 10 16 0.00 0.00
7:58 pm 19:58 Cloudy 32 0 28 -2.1 86 86 NNW 18 30 30.32 1027 10 16 0.00 0.00
8:58 pm 20:58 Cloudy 32 -0.2 28 -2.3 86 86 N 22 35 30.34 1028 10 16 0.00 0.00
9:57 pm 21:57 Cloudy 30 -1 27 -3 86 86 NNW 16 26 30.39 1029 10 16 0.00 0.00
9:58 pm 21:58 Cloudy 30 -1 27 -3 86 86 NNW 15 24 30.38 1029 10 16 0.00 0.00
10:29 pm 22:29 Cloudy 30 -1 27 -3 86 86 NNW 14 22 30.42 1030 10 16 0.00 0.00
10:58 pm 22:58 Cloudy 29 -1.5 26 -3.2 88 88 N 17 28 30.41 1030 10 16 0.00 0.00
11:35 pm 23:35 Cloudy 28 -2 25 -4 86 86 NNW 21 33 30.42 1030 10 16 0.00 0.00
11:58 pm 23:58 Cloudy 28 -2 25 -3.7 88 88 N 18 30 30.41 1030 10 16 0.00 0.00

Powered by AerisWeather